Temperature
18 18 18 18 18 18 19 19 18 18 18 18 18 18 18 18 18 18 18 18 18 18 18 18 18 18 18 18 18 18 18 17 17 17 17 17 17 17 17 17 17 17 17
19 19 19 18 18 19 19 18 19 18 18 18 18 18 18 18 18 18 18 18 18 18 18 18 18 18 18 18 18 17 17 17 17 17 17 17 17 17 17 17 17 17 16
19 19 18 18 18 18 18 18 18 18 18 18 18 18 18 18 18 18 18 18 18 18 18 18 18 18 18 18 17 17 17 17 17 17 17 17 17 17 17 17 17 17 16
19 19 18 18 19 18 18 18 18 18 18 18 18 18 18 18 18 18 18 18 18 18 18 18 18 18 18 17 17 17 17 17 17 17 17 17 17 17 17 17 16 16 16
18 18 18 18 19 18 18 19 18 18 18 18 18 19 19 18 18 18 18 18 18 18 17 18 18 18 18 18 17 17 17 17 17 17 17 17 17 17 17 16 16 16 16
19 18 18 19 18 18 18 18 18 18 18 18 18 18 18 18 18 18 18 18 18 18 18 17 17 17 17 17 17 17 17 17 17 17 17 17 17 17 16 16 16 16 16
19 19 18 19 18 18 18 18 18 18 18 18 18 19 19 19 18 18 18 18 18 18 18 17 17 17 17 17 17 17 17 17 17 17 17 17 17 16 16 16 16 16 16
19 19 18 18 18 18 18 18 18 18 18 18 18 19 20 19 18 19 18 18 18 18 18 17 17 17 17 17 17 17 17 17 17 17 17 17 16 16 16 16 16 16 16
19 19 18 18 18 18 18 18 18 18 18 18 18 18 19 20 19 19 18 18 18 17 17 17 17 17 17 17 16 17 17 17 17 17 17 16 16 16 16 16 16 16 16
18 18 18 18 18 18 18 18 18 17 17 18 18 18 18 18 18 19 18 18 17 17 17 17 17 17 17 16 16 16 17 17 17 17 16 16 16 16 16 16 16 16 16
18 18 18 18 18 18 18 17 17 17 17 17 18 18 17 17 17 18 18 18 18 17 17 17 17 17 16 16 16 16 16 16 16 16 16 16 16 16 16 16 16 16 15
18 18 18 18 17 17 17 17 17 17 17 17 17 17 17 17 18 18 18 18 18 17 17 17 17 17 16 16 16 16 16 16 16 16 16 16 16 16 16 16 15 15 15
18 17 17 17 17 17 17 17 17 17 17 17 17 17 17 17 17 17 17 18 17 17 17 17 17 16 16 16 16 16 16 16 16 16 16 16 16 15 15 15 15 15 15
17 17 17 17 17 17 17 17 17 17 17 17 17 17 17 17 17 17 17 17 17 17 17 17 16 16 16 16 16 16 15 15 15 15 15 15 15 15 15 15 15 15 15
17 17 17 17 17 17 17 17 16 16 16 16 16 16 16 16 16 16 16 16 17 17 17 17 16 16 16 16 16 15 15 15 15 15 15 15 15 15 15 15 15 15 15
17 17 17 17 17 17 17 16 16 16 16 16 16 16 16 16 16 16 16 16 16 16 17 17 16 16 16 15 15 15 15 15 15 15 15 15 14 14 15 14 15 15 15
17 17 17 17 17 17 16 16 16 16 16 16 16 15 15 16 16 16 16 16 16 16 16 16 15 15 15 15 15 15 15 15 14 14 14 14 14 14 14 14 14 14 14
17 17 17 17 16 16 16 16 16 16 16 15 15 15 15 15 15 15 15 15 15 15 15 15 15 15 15 15 14 14 14 14 14 14 14 14 14 14 14 14 14 14 14
17 17 17 16 16 16 16 16 16 15 15 15 15 15 15 15 15 15 15 15 15 15 15 15 15 14 14 14 14 14 14 14 14 14 14 13 13 13 13 13 13 13 14
17 17 16 16 16 16 16 16 15 15 15 15 15 15 14 15 15 15 15 14 14 14 14 14 14 14 14 14 14 14 14 13 13 13 13 13 13 13 13 13 13 13 13
16 16 16 16 16 15 15 15 15 15 15 14 14 14 14 14 15 15 14 14 14 14 14 14 14 14 14 13 13 13 13 13 13 13 13 13 13 13 13 13 13 13 13
16 16 15 15 15 15 15 15 15 15 14 14 14 14 14 14 14 14 14 14 14 14 14 14 14 13 13 13 13 13 13 13 13 13 13 13 13 13 12 12 12 12 12
15 15 15 15 15 15 15 15 15 14 14 14 14 14 14 14 14 14 14 14 14 14 13 13 13 13 13 13 13 13 12 13 12 12 12 13 12 12 12 12 12 12 12
15 15 14 14 14 14 14 14 14 14 14 13 14 14 14 13 13 13 13 13 13 13 13 13 13 13 13 12 12 12 12 12 12 12 12 12 12 12 12 12 12 12 12
15 14 14 14 14 14 14 14 14 13 13 13 13 13 13 13 13 13 13 13 13 12 13 13 13 12 12 12 12 12 12 12 13 12 12 12 12 12 12 11 11 11 11
14 14 14 14 13 13 14 14 13 13 13 13 13 13 13 13 13 13 13 12 12 12 12 12 12 12 12 12 12 12 12 12 12 12 12 11 11 11 11 11 11 11 11
Wind_Speed
1 1 1 1 2 1 1 1 1 1 2 3 3 3 4 4 4 3 2 5 6 7 7 8 8 8 8 8 9 10 12 12 11 12 12 12 12 12 12 12 13 12 13
1 1 1 1 1 1 1 1 1 2 2 2 3 3 4 4 3 4 4 4 7 7 8 8 8 8 8 8 9 10 10 11 11 12 12 13 13 13 13 13 13 13 14
1 2 1 1 1 1 1 2 2 2 2 2 3 3 3 3 4 4 4 4 5 8 8 7 8 8 8 8 9 9 10 10 11 11 12 13 14 14 14 14 14 14 14
1 2 1 1 1 2 1 1 1 2 2 2 2 3 3 3 4 5 5 4 4 3 5 7 7 7 7 7 8 9 9 10 11 11 11 12 13 14 14 14 14 14 14
1 2 1 1 2 1 1 2 1 2 2 2 3 3 3 3 4 4 4 4 3 3 3 5 7 6 6 6 7 7 8 9 10 11 11 12 13 13 13 13 13 13 14
1 2 1 1 3 1 1 1 1 2 2 2 3 2 3 3 3 3 4 3 3 3 3 3 4 5 6 5 5 6 7 8 9 9 10 11 12 12 12 13 13 13 13
1 2 2 1 2 1 2 2 2 1 2 2 3 2 2 3 2 3 3 3 2 2 2 2 3 3 3 5 4 5 6 7 8 9 9 10 10 12 12 12 12 12 12
2 2 2 2 2 1 2 2 2 3 2 2 3 3 2 2 2 2 2 3 3 2 2 2 1 2 3 2 1 3 4 5 6 7 8 9 9 10 11 11 11 11 12
2 2 2 2 2 2 2 2 2 3 3 3 2 3 3 2 2 1 1 2 2 2 2 2 2 1 2 3 2 2 2 3 5 6 7 8 8 8 9 10 11 11 11
2 2 2 2 3 2 2 3 2 2 4 4 2 3 3 4 3 3 2 2 3 3 3 3 2 2 3 3 2 1 1 2 3 4 6 6 7 8 8 9 10 11 11
1 2 1 2 2 2 2 2 2 3 3 4 4 3 3 3 5 5 4 3 3 3 3 3 3 3 2 3 3 1 0 1 3 3 4 6 6 7 7 8 8 9 10
1 1 2 2 2 2 2 2 2 3 4 4 5 4 4 4 4 4 5 5 4 3 3 3 3 3 2 2 2 1 0 2 3 4 4 5 5 5 6 7 8 8 9
2 1 2 2 2 2 2 3 3 4 4 4 5 4 4 5 5 5 5 5 5 4 3 3 2 2 3 3 2 1 2 2 3 4 4 4 5 5 5 5 6 7 9
2 2 2 2 2 2 3 3 3 4 3 4 4 4 5 4 4 4 4 5 5 5 4 3 2 2 3 3 2 4 3 2 3 4 4 4 4 5 5 5 5 5 6
3 2 3 3 3 3 3 4 3 4 4 4 4 4 5 4 4 4 4 5 5 6 5 3 3 2 3 3 2 4 3 1 3 3 3 3 4 4 4 3 3 3 3
2 2 3 4 4 3 3 4 4 3 4 4 3 4 5 4 4 4 4 5 5 6 6 4 3 3 3 3 1 3 3 2 2 2 1 2 2 2 2 2 2 2 3
3 3 3 4 4 4 4 4 5 4 5 4 4 4 4 5 4 4 4 4 4 5 6 5 3 2 2 4 3 3 3 3 2 4 2 1 0 0 0 1 1 2 2
3 3 4 4 4 4 4 5 5 5 5 5 5 4 5 4 4 5 4 4 4 4 5 6 4 3 2 2 3 4 2 2 2 5 5 3 2 1 1 0 1 1 1
4 4 4 5 5 5 5 5 5 5 5 5 5 5 5 4 4 4 5 4 4 4 4 4 4 3 3 2 3 3 3 2 4 3 7 7 5 4 2 1 0 0 1
4 4 4 5 5 6 5 5 5 5 6 5 5 5 5 5 5 5 4 4 4 4 4 4 4 3 2 2 2 3 2 2 3 3 2 3 6 8 6 4 2 1 1
4 4 4 5 5 5 5 5 5 5 5 5 5 5 4 4 5 5 4 4 4 4 4 3 4 4 2 2 2 3 3 3 2 2 3 3 2 3 5 6 4 1 1
4 4 4 5 5 4 3 4 6 5 4 5 4 4 5 5 4 4 4 4 4 4 4 4 4 4 3 3 3 3 3 3 3 1 3 3 2 2 2 1 3 3 2
5 5 5 5 5 3 2 3 5 6 5 4 4 5 5 4 4 5 5 6 5 4 4 5 5 5 4 3 4 4 3 4 3 2 3 3 2 3 3 2 7 5 3
4 5 5 4 4 3 2 4 6 6 5 5 5 5 5 5 3 4 4 4 4 4 4 5 4 5 4 3 4 5 5 5 4 3 2 3 2 3 3 1 7 6 4
4 4 4 4 4 4 2 3 6 4 4 4 4 4 4 4 1 4 4 4 4 4 2 1 1 2 2 3 4 4 4 4 3 2 2 3 3 3 3 2 3 7 6
4 4 4 4 5 4 3 3 5 4 4 4 3 3 1 2 2 3 4 4 5 4 3 3 3 4 4 4 5 4 4 4 3 2 1 2 3 3 3 2 1 2 3
Wind_Direction
230 289 294 275 274 276 242 250 260 251 249 243 255 254 255 246 251 251 216 180 209 227 235 239 237 235 237 235 241 238 232 230 228 226 225 226 226 227 228 229 229 231 231
232 265 252 264 271 267 301 287 274 261 268 269 262 258 263 257 251 255 253 204 201 217 229 233 232 231 232 233 241 242 234 229 229 229 228 230 231 230 230 231 232 233 234
218 236 248 260 303 282 260 261 274 259 253 247 252 256 251 254 254 252 252 250 225 202 206 216 227 230 231 235 240 243 238 232 228 229 231 232 233 232 231 233 234 233 234
248 251 272 298 299 278 276 272 273 287 290 277 264 259 253 239 239 239 237 236 248 238 199 201 220 229 235 240 243 246 245 239 233 231 234 236 238 236 234 234 235 235 235
277 268 299 327 283 284 293 298 329 300 299 291 272 251 255 247 243 239 237 235 231 242 240 189 204 215 232 244 248 250 247 243 238 235 237 240 242 241 239 237 236 237 237
278 291 263 306 291 294 300 321 312 306 297 290 290 285 262 255 243 243 245 238 226 233 242 246 228 209 211 228 243 252 254 247 244 242 242 244 244 242 241 240 238 237 235
274 284 300 290 292 304 313 302 293 274 290 309 288 278 245 229 229 231 239 248 234 233 239 247 261 275 218 198 219 240 251 256 255 251 248 249 249 243 240 241 239 237 236
269 254 282 280 279 284 283 299 296 299 293 288 293 293 279 220 215 228 226 233 242 243 241 230 236 274 290 280 172 210 245 262 260 261 257 254 255 246 240 239 239 239 239
260 286 286 282 284 277 279 279 273 277 289 285 291 295 295 300 313 227 229 240 246 255 255 247 230 243 267 281 279 203 229 264 267 273 271 267 262 252 244 239 240 242 241
262 262 280 289 283 278 289 277 277 282 277 280 274 272 287 307 287 277 236 233 240 244 258 267 259 243 251 259 268 332 206 245 267 280 281 276 267 258 249 246 243 241 240
259 270 278 284 279 279 290 300 303 289 284 290 291 286 275 262 259 271 280 279 263 253 255 267 275 266 253 262 269 314 124 244 262 272 275 275 273 268 255 248 247 245 243
252 264 273 284 275 280 273 266 275 269 282 290 291 288 282 279 273 268 271 274 279 279 277 280 278 276 269 268 279 47 251 268 262 264 270 276 281 278 274 260 252 253 254
279 279 282 282 284 275 274 275 266 280 280 279 279 282 281 280 284 278 276 280 285 282 270 262 269 284 283 292 296 231 220 242 262 265 268 275 283 284 280 277 269 262 259
293 302 270 261 269 278 275 270 273 270 274 276 276 280 277 275 278 277 278 280 279 271 254 271 265 278 291 295 324 277 266 208 247 267 271 272 281 285 281 275 279 279 267
273 280 276 265 265 266 269 269 272 280 279 274 270 262 267 273 273 275 271 271 274 279 279 266 264 270 282 295 306 287 288 222 237 255 264 270 281 288 284 275 278 286 287
276 270 264 264 263 260 258 265 266 270 269 268 271 280 278 277 279 270 265 264 265 273 280 284 278 290 302 294 272 280 278 185 197 199 234 278 289 291 295 288 287 287 285
253 260 266 268 267 267 266 264 268 267 264 267 271 267 270 281 281 276 269 266 265 265 271 281 290 303 295 302 299 276 263 250 186 160 167 187 199 329 300 279 284 296 309
246 258 265 266 266 265 264 263 267 267 263 264 268 271 272 270 272 276 281 275 270 264 267 275 276 279 275 286 287 281 283 264 257 149 165 178 177 192 210 250 275 308 317
255 259 263 264 264 266 264 263 264 265 264 265 267 269 274 279 279 281 276 274 271 265 265 265 268 277 278 287 275 269 268 290 281 178 180 186 188 201 203 185 178 282 279
256 260 263 265 266 267 265 264 260 260 262 261 264 270 275 277 280 280 273 270 274 274 265 265 265 263 263 275 274 276 274 267 287 296 301 235 193 198 196 185 180 252 269
260 260 266 269 270 267 273 276 270 265 266 266 270 272 273 281 299 295 292 290 283 278 276 272 268 267 273 290 287 281 285 283 252 287 305 286 231 232 205 189 182 226 250
269 271 272 276 278 284 338 317 293 279 271 269 274 276 267 252 254 248 270 284 295 287 297 293 281 278 279 279 281 278 283 285 277 318 300 294 304 296 288 252 127 153 172
267 271 273 277 281 291 318 296 287 276 267 269 268 267 270 264 254 260 232 220 233 243 261 276 277 279 280 282 276 263 264 276 286 304 288 285 298 305 303 81 121 139 155
270 270 271 272 275 281 274 269 274 258 260 260 261 261 264 273 279 280 267 256 251 241 246 255 264 276 288 293 268 262 261 252 249 234 263 280 293 300 303 146 138 147 154
270 269 268 269 271 277 262 263 274 256 253 256 264 270 272 264 295 286 262 255 257 249 200 180 284 264 276 273 277 267 258 256 265 247 232 275 292 295 287 267 160 163 165
262 267 269 270 271 273 254 250 274 264 265 265 253 242 213 264 276 270 254 252 257 269 269 229 214 222 234 219 218 238 257 263 273 264 185 276 289 292 283 285 295 209 197
Height
1534 1534 1533 1533 1533 1533 1533 1533 1533 1533 1532 1532 1532 1532 1532 1532 1532 1532 1531 1530 1529 1529 1529 1529 1529 1529 1529 1529 1530 1530 1531 1531 1531 1531 1532 1532 1532 1533 1533 1534 1534 1535 1535
1533 1533 1533 1533 1533 1532 1532 1532 1532 1531 1531 1531 1531 1531 1530 1530 1531 1530 1530 1529 1528 1527 1527 1527 1527 1527 1527 1527 1528 1528 1528 1528 1528 1528 1529 1529 1529 1530 1530 1530 1531 1531 1531
1533 1533 1533 1533 1532 1532 1531 1531 1530 1530 1530 1530 1529 1529 1529 1528 1528 1528 1528 1528 1528 1526 1526 1525 1526 1526 1526 1526 1526 1526 1525 1525 1525 1525 1525 1526 1526 1526 1527 1527 1527 1527 1527
1533 1533 1533 1533 1532 1531 1531 1530 1530 1529 1529 1529 1528 1528 1528 1527 1526 1526 1526 1526 1526 1526 1525 1524 1524 1524 1524 1523 1523 1523 1522 1522 1522 1522 1522 1522 1523 1523 1523 1523 1523 1523 1523
1532 1532 1532 1532 1531 1531 1530 1530 1529 1528 1528 1527 1527 1526 1526 1525 1525 1525 1524 1524 1524 1523 1523 1522 1522 1521 1521 1521 1520 1520 1519 1518 1518 1518 1518 1518 1519 1519 1519 1520 1520 1520 1520
1531 1532 1531 1530 1530 1530 1529 1528 1528 1527 1526 1526 1526 1525 1524 1523 1523 1523 1523 1523 1522 1521 1521 1520 1520 1519 1518 1518 1518 1517 1516 1516 1516 1516 1516 1515 1515 1515 1515 1516 1516 1516 1516
1531 1530 1531 1529 1529 1529 1528 1527 1527 1526 1525 1525 1524 1523 1523 1522 1521 1521 1520 1521 1520 1520 1519 1518 1518 1518 1517 1515 1515 1514 1513 1513 1513 1513 1512 1512 1511 1511 1511 1511 1512 1512 1512
1529 1530 1528 1528 1528 1527 1526 1526 1525 1525 1525 1524 1523 1522 1522 1522 1520 1520 1519 1519 1518 1518 1517 1517 1516 1515 1514 1514 1512 1511 1511 1510 1510 1510 1509 1508 1508 1507 1507 1508 1508 1508 1509
1528 1527 1527 1527 1526 1526 1526 1524 1523 1523 1524 1523 1522 1523 1521 1519 1519 1519 1518 1517 1516 1516 1515 1515 1514 1513 1512 1511 1510 1509 1508 1507 1507 1506 1506 1505 1505 1504 1504 1504 1504 1505 1505
1526 1526 1526 1525 1524 1524 1524 1523 1523 1522 1522 1522 1522 1520 1520 1520 1519 1517 1517 1516 1515 1514 1513 1513 1512 1511 1510 1509 1508 1506 1506 1505 1504 1503 1503 1502 1502 1501 1501 1501 1501 1501 1501
1525 1525 1524 1523 1522 1522 1522 1521 1521 1520 1520 1520 1520 1520 1519 1518 1517 1517 1515 1515 1514 1513 1512 1511 1510 1509 1507 1506 1505 1504 1503 1502 1501 1501 1500 1499 1499 1498 1498 1498 1498 1498 1498
1524 1523 1522 1521 1521 1520 1519 1519 1518 1518 1518 1518 1517 1517 1517 1516 1515 1515 1513 1512 1511 1511 1510 1508 1508 1506 1505 1504 1503 1501 1501 1500 1499 1498 1497 1497 1496 1496 1495 1495 1495 1494 1494
1523 1521 1521 1519 1519 1518 1517 1517 1516 1516 1516 1515 1515 1514 1514 1514 1513 1513 1512 1510 1509 1508 1507 1506 1505 1504 1503 1502 1500 1499 1498 1497 1496 1495 1495 1494 1493 1493 1492 1492 1491 1491 1491
1521 1519 1518 1517 1517 1516 1516 1515 1515 1514 1514 1513 1512 1512 1511 1511 1511 1510 1509 1508 1507 1506 1505 1504 1503 1502 1501 1499 1498 1496 1495 1494 1494 1493 1492 1491 1491 1490 1489 1489 1488 1488 1487
1518 1518 1517 1516 1515 1514 1513 1513 1513 1512 1511 1510 1510 1509 1509 1509 1508 1507 1506 1506 1506 1504 1502 1501 1501 1499 1498 1496 1495 1494 1493 1491 1491 1490 1489 1489 1488 1487 1487 1486 1485 1485 1484
1516 1516 1515 1514 1514 1512 1511 1511 1511 1509 1509 1508 1507 1506 1506 1506 1505 1505 1504 1503 1502 1502 1500 1499 1498 1497 1495 1494 1492 1491 1490 1488 1487 1487 1486 1485 1485 1485 1484 1483 1483 1482 1482
1514 1513 1512 1512 1511 1510 1509 1508 1508 1507 1506 1505 1505 1504 1503 1502 1502 1502 1501 1500 1499 1499 1497 1497 1495 1494 1492 1491 1489 1489 1488 1486 1485 1484 1484 1483 1482 1482 1481 1481 1480 1480 1479
1511 1511 1510 1509 1508 1507 1506 1505 1504 1504 1503 1502 1502 1501 1500 1499 1498 1498 1497 1497 1496 1495 1495 1493 1492 1491 1489 1488 1487 1486 1486 1485 1484 1482 1481 1481 1480 1479 1479 1478 1478 1477 1477
1508 1508 1507 1506 1505 1504 1503 1502 1501 1501 1500 1499 1499 1498 1497 1496 1495 1495 1494 1493 1493 1492 1491 1491 1490 1488 1487 1486 1485 1484 1483 1482 1482 1481 1479 1478 1477 1477 1476 1476 1475 1475 1474
1505 1504 1504 1503 1502 1501 1500 1499 1498 1497 1497 1496 1495 1494 1494 1493 1492 1492 1491 1490 1489 1489 1488 1488 1487 1486 1485 1484 1483 1482 1481 1480 1480 1480 1478 1477 1476 1475 1474 1473 1473 1472 1472
1502 1501 1500 1499 1499 1498 1497 1495 1495 1494 1494 1493 1492 1491 1491 1490 1489 1489 1488 1488 1487 1486 1486 1485 1484 1484 1483 1482 1481 1480 1479 1478 1478 1477 1476 1476 1475 1474 1473 1471 1470 1470 1469
1499 1498 1497 1496 1495 1495 1493 1492 1491 1491 1490 1490 1489 1488 1488 1487 1486 1485 1485 1484 1484 1483 1483 1482 1482 1481 1480 1479 1478 1478 1477 1477 1476 1476 1474 1474 1473 1472 1472 1470 1468 1467 1467
1496 1495 1494 1493 1491 1490 1489 1488 1487 1487 1486 1486 1485 1485 1485 1485 1483 1482 1481 1480 1480 1480 1479 1479 1479 1478 1477 1477 1476 1475 1474 1474 1474 1473 1472 1472 1471 1471 1470 1468 1466 1466 1465
1492 1491 1490 1489 1488 1487 1485 1485 1484 1484 1483 1482 1482 1481 1479 1480 1479 1478 1478 1477 1477 1476 1476 1476 1475 1474 1474 1474 1473 1473 1472 1471 1470 1470 1470 1470 1470 1469 1468 1467 1465 1464 1463
1488 1487 1487 1486 1484 1483 1482 1481 1480 1480 1479 1479 1478 1477 1477 1477 1476 1475 1475 1474 1474 1474 1474 1473 1472 1471 1470 1470 1470 1470 1470 1470 1469 1469 1468 1468 1467 1467 1466 1465 1464 1462 1461
1484 1484 1483 1482 1481 1480 1479 1478 1477 1477 1477 1476 1475 1474 1473 1473 1473 1472 1472 1472 1472 1472 1472 1470 1469 1468 1468 1467 1466 1467 1467 1467 1467 1467 1465 1465 1465 1465 1464 1464 1463 1462 1461